[[{"header":{"parameterUnit":"m.s-1","parameterCategory":1,"la1":30.2991,"la2":30.254,"lo1":-89.0895,"lo2":-89.0444,"dy":0.0017,"dx":0.0017,"nx":28,"ny":28,"refTime":"2024-07-12T03:00:00:Z","depth":0,"parameterNumber":2,"parameterNumberName":"U-component_of_WINDS"},"data":[0,0,0,0,0,0,0,0,0,0,0,0,0,0,0,0,0,0,0,0,0,0,0,0,0,0,0,0,0,0,0,0,0,0,0,0,0,0,0,0,0,0,0,0,0,0,0,0,0,0,0,0,0,0,0,0,0,0,2.3382,2.3383,0,2.3433,2.3434,2.3435,2.3424,2.3423,2.3422,2.3421,2.3474,2.3477,2.3479,0,0,0,0,0,0,0,0,0,0,0,0,0,2.3278,2.328,2.3382,2.3383,2.3384,2.3433,2.3434,2.3435,2.3424,2.3423,2.3422,2.3421,2.3474,2.3476,2.3479,0,0,0,0,0,0,0,0,0,0,0,0,0,2.3326,2.328,2.3382,2.3384,2.3385,2.3433,2.3434,2.3435,2.3424,2.3423,2.3421,2.342,2.3473,2.3476,2.3479,2.3529,0,0,2.349,2.3491,0,0,0,0,0,0,0,0,2.3323,2.3329,2.3383,2.3384,2.3385,2.3421,2.3417,2.3467,2.3425,2.3409,2.3421,2.3419,2.3458,2.3462,2.3475,2.3532,2.3534,2.349,2.3492,2.3494,2.3495,0,0,0,0,0,0,0,2.332,2.3327,2.3403,2.3384,2.3385,2.3383,2.3389,2.3426,2.3441,2.3411,2.341,2.3416,2.3458,2.3472,2.3476,2.3535,2.349,2.3493,2.3495,2.3497,2.3637,2.3638,0,0,0,0,0,0,2.3315,2.3324,2.3401,2.3404,2.335,2.3386,2.3392,2.3411,2.344,2.3444,2.3417,2.3415,2.3467,2.3472,2.3478,2.3539,2.3494,2.3497,2.3499,2.3635,2.3637,2.3639,0,0,0,0,0,0,2.3313,2.3322,2.3399,2.3364,2.3374,2.339,2.3411,2.3413,2.3426,2.3445,2.3448,2.3428,2.3466,2.3473,2.3517,2.3541,2.3499,2.3502,2.3633,2.3636,2.3638,2.3661,0,0,0,0,0,0,2.331,2.3321,2.334,2.3365,2.3376,2.3436,2.3412,2.3415,2.3432,2.343,2.3457,2.346,2.3465,2.3512,2.352,2.3545,2.3504,2.3631,2.3634,2.3637,2.3658,2.3664,2.3669,0,0,0,0,0,2.3306,2.3344,2.3341,2.335,2.3399,2.3437,2.3444,2.3449,2.3434,2.3453,2.3466,2.3459,2.3537,2.3516,2.3526,2.3552,2.363,2.3633,2.3637,2.3656,2.3663,2.3669,0,0,0,0,0,0,2.3321,2.3347,2.3344,2.339,2.3412,2.3435,2.3459,2.3456,2.3482,2.3479,2.3485,2.3491,2.3536,2.3548,2.3525,2.3602,2.3581,2.3587,2.3592,2.3599,2.3604,2.36,2.3507,0,0,0,0,0,2.333,2.3358,2.338,2.3419,2.343,2.3443,2.346,2.3462,2.3485,2.3494,2.351,2.3532,2.3562,2.3581,2.361,2.366,2.3667,2.3683,2.3688,2.3693,2.3697,2.3727,2.3734,2.3651,2.3651,2.3651,0,0,2.3348,2.3366,2.3383,2.3422,2.3439,2.347,2.3451,2.3483,2.3506,2.3499,2.3541,2.3554,2.358,2.3627,2.3649,2.3639,2.3722,2.3698,2.3701,2.3703,2.3731,2.3739,2.3746,2.3654,2.3653,2.3653,0,0,2.3396,2.3412,2.3447,2.3465,2.3491,2.35,2.3508,2.3533,2.3541,2.3584,2.358,2.3608,2.3659,2.3678,2.3694,2.3752,2.3747,2.3762,2.3789,2.3818,2.3824,2.383,2.3851,2.3859,2.3766,2.3767,2.3767,0,2.3415,2.346,2.3465,2.3499,2.3517,2.3513,2.3549,2.3566,2.36,2.3613,2.3601,2.3666,2.3683,2.3736,2.3751,2.3764,2.3774,2.3758,2.3823,2.3829,2.3834,2.3855,2.3863,2.3768,2.3768,2.3768,2.3768,0,2.3483,2.3514,2.354,2.3573,2.3594,2.3629,2.364,2.3661,2.3662,2.3673,2.3718,2.3738,2.3771,2.3784,2.3785,2.3838,2.3831,2.3821,2.38,2.3844,2.3863,2.3871,2.377,2.377,2.3769,2.3769,0,0,2.3539,2.3577,2.3586,2.3602,2.3632,2.3657,2.3692,2.3725,2.3743,2.3767,2.3798,2.3842,2.3834,2.3852,2.3856,2.3881,2.3927,2.3869,2.3869,2.3879,2.3988,2.3994,2.4003,2.3925,2.3926,2.3928,2.3985,0,2.3591,2.3652,2.3659,2.3715,2.3745,2.3743,2.3774,2.3796,2.3807,2.3835,2.3848,2.388,2.3866,2.3877,2.3902,2.3916,2.3949,2.3913,2.3954,2.3955,2.3947,2.4013,2.402,2.4073,2.3993,2.3994,2.3995,0,2.3658,2.3685,2.3743,2.377,2.3783,2.3811,2.3842,2.3869,2.3895,2.3902,2.3924,2.3925,2.3963,2.3941,2.3994,2.3969,2.3987,2.3997,2.3999,2.4002,2.3977,2.4018,2.4091,2.4098,2.4007,2.4006,2.4005,0,2.3694,2.3745,2.3787,2.38,2.3833,2.3853,2.3868,2.3892,2.3912,2.394,2.3953,2.3985,2.4003,2.4028,2.4038,2.4021,2.4091,2.407,2.4098,2.4098,2.4112,2.4111,2.4188,2.4124,2.4124,2.4124,2.4124,0,2.375,2.3786,2.3804,2.3829,2.387,2.3879,2.3919,2.3933,2.3956,2.3985,2.3985,2.4013,2.4025,2.4055,2.4064,2.4107,2.4115,2.4122,2.4123,2.4121,2.4121,2.4132,2.4129,2.4126,2.4126,2.4125,2.4125,0,2.3796,2.381,2.3855,2.3883,2.3891,2.392,2.3944,2.397,2.3982,2.4019,2.4028,2.4047,2.4083,2.4096,2.4139,2.4145,2.4195,2.4194,2.4186,2.4186,2.4214,2.4211,2.4301,2.4313,2.4242,2.4242,2.4243,0,2.3831,2.3858,2.389,2.3909,2.3925,2.3956,2.3977,2.3988,2.4009,2.4042,2.4064,2.4099,2.4128,2.4185,2.4203,2.4237,2.4236,2.4266,2.4241,2.4239,2.4237,2.4235,2.4238,2.427,2.427,2.4271,2.4271,0,2.3891,2.3897,2.3926,2.3958,2.3983,2.4009,2.4034,2.405,2.4065,2.409,2.4126,2.4148,2.4193,2.4229,2.4263,2.4279,2.4278,2.4279,2.4288,2.4285,2.428,2.4283,2.4198,2.4277,2.4276,2.4276,2.4276,2.4275,2.3932,2.3957,2.3984,2.4017,2.4038,2.4062,2.4087,2.4103,2.4134,2.4171,2.4176,2.4215,2.4242,2.4289,2.4307,2.4338,2.4331,2.4343,2.4346,2.4348,2.435,2.4275,2.4345,2.4345,2.4345,2.4345,2.4344,0,2.3993,2.401,2.4041,2.4076,2.4103,2.41,2.4129,2.4151,2.4186,2.4211,2.424,2.4283,2.4318,2.4339,2.4375,2.4396,2.4397,2.4405,2.4403,2.4407,2.4355,2.4344,2.4404,2.4404,2.4404,2.4404,2.4404,2.4404,2.4027,2.4069,2.4079,2.4132,2.415,2.4188,2.4205,2.4227,2.4248,2.4296,2.4325,2.4339,2.4363,2.4401,2.4433,2.4439,2.4452,2.4461,2.4466,2.4417,2.4411,2.4405,2.4395,2.4464,2.4464,2.4516,2.4516,2.4516]},{"header":{"parameterUnit":"m.s-1","parameterCategory":1,"la1":30.2991,"la2":30.254,"lo1":-89.0895,"lo2":-89.0444,"dy":0.0017,"dx":0.0017,"nx":28,"ny":28,"refTime":"2024-07-12T03:00:00:Z","depth":0,"parameterNumber":3,"parameterNumberName":"V-component_of_WINDS"},"data":[0,0,0,0,0,0,0,0,0,0,0,0,0,0,0,0,0,0,0,0,0,0,0,0,0,0,0,0,0,0,0,0,0,0,0,0,0,0,0,0,0,0,0,0,0,0,0,0,0,0,0,0,0,0,0,0,0,0,-0.9771,-0.9771,0,-0.9771,-0.9771,-0.9771,-0.9773,-0.9773,-0.9773,-0.9773,-0.9773,-0.9773,-0.9773,0,0,0,0,0,0,0,0,0,0,0,0,0,-0.9773,-0.9773,-0.9771,-0.9771,-0.9771,-0.9771,-0.9771,-0.9771,-0.9773,-0.9773,-0.9773,-0.9773,-0.9773,-0.9773,-0.9773,0,0,0,0,0,0,0,0,0,0,0,0,0,-0.9773,-0.9773,-0.9771,-0.9772,-0.9772,-0.9771,-0.9771,-0.9771,-0.9773,-0.9773,-0.9773,-0.9773,-0.9773,-0.9773,-0.9773,-0.9772,0,0,-0.9773,-0.9773,0,0,0,0,0,0,0,0,-0.9773,-0.9773,-0.9772,-0.9772,-0.9772,-0.9772,-0.9772,-0.9771,-0.9773,-0.9773,-0.9773,-0.9773,-0.9773,-0.9773,-0.9773,-0.9772,-0.9772,-0.9773,-0.9773,-0.9773,-0.9773,0,0,0,0,0,0,0,-0.9773,-0.9773,-0.9771,-0.9772,-0.9772,-0.9773,-0.9773,-0.9772,-0.9772,-0.9773,-0.9773,-0.9773,-0.9773,-0.9773,-0.9773,-0.9772,-0.9773,-0.9773,-0.9773,-0.9773,-0.9771,-0.9771,0,0,0,0,0,0,-0.9773,-0.9773,-0.9771,-0.9771,-0.9773,-0.9773,-0.9773,-0.9772,-0.9772,-0.9773,-0.9773,-0.9773,-0.9773,-0.9773,-0.9773,-0.9772,-0.9773,-0.9773,-0.9773,-0.9771,-0.9771,-0.9771,0,0,0,0,0,0,-0.9773,-0.9772,-0.9771,-0.9772,-0.9772,-0.9773,-0.9772,-0.9772,-0.9772,-0.9773,-0.9773,-0.9773,-0.9773,-0.9773,-0.9772,-0.9772,-0.9773,-0.9773,-0.9771,-0.9771,-0.9771,-0.977,0,0,0,0,0,0,-0.9773,-0.9772,-0.9771,-0.9772,-0.9772,-0.977,-0.9772,-0.9772,-0.9772,-0.9772,-0.9772,-0.9772,-0.9773,-0.9773,-0.9772,-0.9772,-0.9773,-0.9771,-0.9771,-0.9771,-0.977,-0.977,-0.977,0,0,0,0,0,-0.9773,-0.977,-0.9771,-0.9771,-0.977,-0.977,-0.977,-0.9771,-0.9772,-0.9771,-0.9772,-0.9772,-0.9772,-0.9772,-0.9772,-0.9772,-0.9771,-0.9771,-0.9771,-0.9771,-0.977,-0.977,0,0,0,0,0,0,-0.9769,-0.977,-0.9771,-0.9769,-0.977,-0.977,-0.9769,-0.977,-0.9771,-0.9771,-0.9772,-0.9772,-0.9772,-0.9772,-0.9772,-0.9772,-0.9772,-0.9772,-0.9772,-0.9771,-0.9771,-0.9771,-0.9773,0,0,0,0,0,-0.9768,-0.9767,-0.9769,-0.9767,-0.9767,-0.9768,-0.9768,-0.9769,-0.977,-0.977,-0.977,-0.9771,-0.9771,-0.9771,-0.9772,-0.9771,-0.9772,-0.9771,-0.9771,-0.9771,-0.9771,-0.9772,-0.9772,-0.9771,-0.9771,-0.9771,0,0,-0.9765,-0.9766,-0.9766,-0.9766,-0.9766,-0.9767,-0.9768,-0.9768,-0.9768,-0.9769,-0.9769,-0.977,-0.9771,-0.9771,-0.9771,-0.9771,-0.9771,-0.9771,-0.9771,-0.9771,-0.9772,-0.9772,-0.9772,-0.9771,-0.9771,-0.9771,0,0,-0.9761,-0.9761,-0.976,-0.9761,-0.9763,-0.9764,-0.9764,-0.9765,-0.9766,-0.9766,-0.9768,-0.9769,-0.9769,-0.977,-0.9771,-0.977,-0.9771,-0.977,-0.9769,-0.9771,-0.9771,-0.9771,-0.9772,-0.9772,-0.977,-0.977,-0.977,0,-0.9758,-0.9758,-0.976,-0.976,-0.9761,-0.9763,-0.9763,-0.9764,-0.9765,-0.9766,-0.9766,-0.9768,-0.9768,-0.977,-0.977,-0.977,-0.9771,-0.977,-0.9771,-0.9771,-0.9771,-0.9772,-0.9772,-0.977,-0.977,-0.977,-0.977,0,-0.9755,-0.9755,-0.9754,-0.9756,-0.9757,-0.9757,-0.976,-0.976,-0.9762,-0.9763,-0.9765,-0.9766,-0.9767,-0.9768,-0.9769,-0.977,-0.977,-0.9771,-0.9771,-0.9771,-0.9772,-0.9773,-0.977,-0.977,-0.977,-0.977,0,0,-0.9746,-0.9751,-0.9751,-0.9753,-0.9756,-0.9756,-0.9757,-0.9759,-0.9761,-0.9762,-0.9763,-0.9765,-0.9766,-0.9767,-0.9768,-0.977,-0.9771,-0.977,-0.977,-0.9771,-0.9774,-0.9774,-0.9774,-0.9772,-0.9772,-0.9772,-0.9775,0,-0.9743,-0.9745,-0.9748,-0.9749,-0.975,-0.9754,-0.9755,-0.9757,-0.9759,-0.9761,-0.9763,-0.9765,-0.9766,-0.9767,-0.9768,-0.977,-0.9772,-0.977,-0.9774,-0.9774,-0.9774,-0.9775,-0.9774,-0.9776,-0.9775,-0.9775,-0.9775,0,-0.9739,-0.9742,-0.9743,-0.9748,-0.9749,-0.975,-0.9753,-0.9754,-0.9758,-0.9759,-0.9762,-0.9764,-0.9766,-0.9767,-0.9771,-0.977,-0.9772,-0.9774,-0.9774,-0.9774,-0.9775,-0.9776,-0.9777,-0.9778,-0.9775,-0.9775,-0.9775,0,-0.9735,-0.9738,-0.974,-0.9742,-0.9747,-0.9748,-0.975,-0.9754,-0.9755,-0.9759,-0.976,-0.9763,-0.9765,-0.9768,-0.9771,-0.9771,-0.9776,-0.9776,-0.9778,-0.9778,-0.9778,-0.9778,-0.978,-0.9779,-0.9779,-0.9779,-0.9779,0,-0.9731,-0.9732,-0.9738,-0.9739,-0.9741,-0.9745,-0.9747,-0.975,-0.9754,-0.9756,-0.9759,-0.9761,-0.9766,-0.9769,-0.9771,-0.9775,-0.9776,-0.9778,-0.9779,-0.9778,-0.9778,-0.9779,-0.9779,-0.9779,-0.9779,-0.9779,-0.9779,0,-0.9726,-0.973,-0.9732,-0.9738,-0.974,-0.9741,-0.9746,-0.9748,-0.9751,-0.9754,-0.9755,-0.976,-0.9764,-0.9768,-0.9773,-0.9776,-0.978,-0.978,-0.9779,-0.9779,-0.9781,-0.9781,-0.9785,-0.9786,-0.9783,-0.9783,-0.9783,0,-0.9723,-0.9724,-0.9731,-0.9733,-0.9736,-0.9739,-0.9741,-0.9746,-0.9748,-0.9754,-0.9755,-0.976,-0.9764,-0.9771,-0.9775,-0.978,-0.9781,-0.9782,-0.9781,-0.9781,-0.9782,-0.9782,-0.9783,-0.9782,-0.9782,-0.9782,-0.9782,0,-0.9719,-0.9721,-0.9725,-0.973,-0.9733,-0.9737,-0.9741,-0.9743,-0.9748,-0.9751,-0.9756,-0.9759,-0.9766,-0.9771,-0.9776,-0.9779,-0.9782,-0.9782,-0.9783,-0.9782,-0.9782,-0.9783,-0.9779,-0.9782,-0.9782,-0.9782,-0.9782,-0.9782,-0.9715,-0.9717,-0.9723,-0.9727,-0.9731,-0.9736,-0.9738,-0.9743,-0.9747,-0.9753,-0.9755,-0.9761,-0.9766,-0.9774,-0.9778,-0.9782,-0.9783,-0.9784,-0.9784,-0.9784,-0.9785,-0.9781,-0.9783,-0.9783,-0.9783,-0.9783,-0.9783,0,-0.9712,-0.9716,-0.972,-0.9727,-0.9731,-0.9734,-0.9739,-0.9742,-0.9747,-0.9752,-0.9757,-0.9763,-0.9769,-0.9775,-0.9781,-0.9784,-0.9785,-0.9785,-0.9785,-0.9786,-0.9783,-0.9783,-0.9784,-0.9784,-0.9784,-0.9784,-0.9784,-0.9784,-0.9711,-0.9715,-0.9719,-0.9726,-0.973,-0.9735,-0.9739,-0.9743,-0.9748,-0.9755,-0.976,-0.9764,-0.977,-0.9777,-0.9783,-0.9785,-0.9787,-0.9787,-0.9789,-0.9786,-0.9786,-0.9786,-0.9785,-0.9787,-0.9787,-0.9792,-0.9792,-0.9792]}]]